Timeline UpdatesTrip UpdatesNews PostsPvt PostsTravel TipsAdmin PostsConv PostsFollowed PostsChat RequestsBlog PostsPNR Posts

Disclaimer
Search
 
 
Wed Jul 23, 2014 02:53:58 ISTHomeTrainsΣChainsAtlasPNRForumGalleryNewsFAQTripsMembersLoginFeedback
No Recent News for this Train
Other Trains in the News **new
Latest...
.
Sun Jun 17, 2012 (02:11PM)
⇐ Return Journey: Train# 17610

17609/Patna - Purna Express

Jul 02 2013 (9:41PM)
Change Departure Station:
Change Arrival Station:
Post a Train Travel TipPost a Train Travel Tip **new
Post a Comment/Question/Picture/VideoPost a Comment/Question/Picture/Video
Pantry/Catering
✓ Pantry Car Avbl
✓ Catering Avbl
RSA - Rake Sharing
Rake/Coach Composition
WDM; SLR; GEN; A1; B1; PC; S1; S2; S3; S4; S5; GEN; SLR
Loco
WDM#3a
News    PNR    Forum    Time-Table    Availability    Fare Chart    Map    Arr/Dep History    Trips    Gallery    ΣChains    X/O    Timeline    
Travel Time: 0h 42m    0 halts    Distance: 49 km    Avg Speed: 70 km/hr
Type: Mail/Express
Zone: SCR/South Central
Departs @ 23:10
Platform# ???
S      
Patna Junction/PNBE 
Arrives @ 23:52
Platform# ???
S      
Ara Junction/ARA 

0 halts. 12 intermediate Stations between Patna Junction and Ara Junction

Hide intermediate Stations  Show Old Time-Table

#CodeStation NameX/OArrivesAvgDepartsAvgHaltPFDay#KmSpeedElevZoneAddress
1PNBE»Patna Junction (10)»  -23:10---10.07057mECRPatna 800001, Bihar
1.1SCYSachiwalay Halt (2)  23:12-23:12-  12.2 7057mECRPatna, Bihar
1.2PWSPhulwari Sharif (3)X  23:15-23:15-  16.0 7058mECRPatna, Bihar
1.3DNRDanapur (5)  23:18-23:18-  19.4 7058mECRKhagaul, Bihar
1.4NEONeora (2)  23:23-23:23-  115.4 7061mECRNational Highway 98, Bihar
1.5GNHIGandhi Halt  23:26-23:26-  118.4 7058mECRPatna, Bihar
1.6SDESadisopur (2)  23:29-23:29-  122.5 7064mECRSadisopur, Bihar
1.7PATLPatel Halt  23:31-23:31-  124.7 7061mECRPatna, Bihar
1.8BTABihta (2)  23:33-23:33-  126.7 7062mECRDistt: Patna, Bihar
1.9VHCHChakki Block CabinX  23:38-23:38-  133.0 7063mECRNational Highway 30, Bihar
1.10KWRKoelwar (2)  23:40-23:40-  135.5 7065mECRNational Highway 30, Bihar
1.11KUAKulharia (2)  23:44-23:44-  139.0 7061mECRChandi Sahar Rd, Bihar
1.12JMIRJamira  23:48-23:48-  144.0 70 ECRPatna, Bihar
2ARA•Ara Junction (3)•X  23:52-23:54-2m--148.96463mECRarrah( 06182-233411), Bihar
2.1JGWLJagjivan  23:57-23:57-  152.1 6459mECRBuxar, Bihar
2.2KRSKarisath (2)  00:03-00:03-  258.9 6465mECRKarisath, Bihar
2.3KYAKauriya  00:07-00:07-  262.5 6461mECRBuxar, Bihar
2.4XSANSarvodaya Halt  00:09-00:09-  264.5 6463mECRBuxar, Bihar
2.5RNTERamanand Tewary  00:10-00:10-  266.5 6463mECRBuxar, Bihar
2.6BEABihiya (3)  00:14-00:14-  270.4 6467mECRBehea, Bihar
2.7ASJPAmar Shahid Jagdev Prasad Halt  00:18-00:18-  274.2 6463mECRArrah Buxar Rd, Bihar
2.8BYNBanahi (2)  00:20-00:20-  276.3 6467mECRBanahi, Bihar
2.9SKRISikaria  00:23-00:23-  280.2 6463mECRKuawan Tikathi Rd, Bihar
2.10RPRRaghunathpur (4)  00:28-00:28-  285.1 6469mECRRaghunathpur, Bihar
2.11VKDHVeer Kunwar Singh Dharauli Halt  00:32-00:32-  289.4 6465mECRArrah Buxar Rd, Bihar
2.12TWGTwining GanjX  00:36-00:36-  293.5 6470mECRArrah Buxar Rd, Bihar
2.13DUREDumraon (3)  00:43-00:43-  2101.1 6470mECRDumraon, Bihar
2.14BUEBaruna  00:49-00:49-  2108.2 6465mECRArrah Buxar Rd, Bihar
3BXRBuxar (3)  00:58-01:00-2m--2117.45067mECRBuxar, Bihar
3.1PWXPPawani Kumarpur Halt  01:11-01:11-  2126.3 5066mECRSukarwallia Rd, Bihar
3.2CSAChausa (2)  01:13-01:13-  2128.4 5068mECRState Highway 14, Bihar
3.3BQWBarakalan  01:20-01:20-  2134.3 5068mECRState Highway 14, Bihar
3.4GMRGahmar (2)X  01:24-01:24-  2137.6 5068mECRDistt: Ghazipur, Uttar Pradesh
3.5KKRHKarahiaX  01:29-01:29-  2141.7 5072mECRPhooli Rd, Uttar Pradesh
3.6BWHBhadaura (2)  01:34-01:34-  2145.8 5069mECRGhazipur, Uttar Pradesh
3.7USKUsia Khas  01:38-01:38-  2149.4 5069mECRDildarnagar, Uttar Pradesh
3.8DLNDildarnagar Junction (2)  01:43-01:43-  2153.6 5072mECRDildarnagar, Uttar Pradesh
3.9DRVDarauli (2)X  01:52-01:52-  2160.7 5070mECRDarauli, Uttar Pradesh
3.10ZNAZamania (2)  01:59-01:59-  2167.1 5077mECRGhazipur, Uttar Pradesh
3.11BHCLBahora Chandil  02:05-02:05-  2172.1 5072mECRDhanapur Avahi Rd, Uttar Pradesh
3.12DHADheena  02:14-02:14-  2179.5 5074mECRDheena, Uttar Pradesh
3.13TLAMTulsi Ashram  02:23-02:23-  2186.8 5077mECRState Highway 69, Uttar Pradesh
3.14SLDSakaldiha (2)X  02:30-02:30-  2193.1 5081mECRState Highway 69, Uttar Pradesh
3.15KCAKuchman (2)  02:39-02:39-  2200.8 5079mECRKuchman, Uttar Pradesh
3.16EOCMEOCM  02:42-02:42-  2202.7 5079mECRChandauli Mjhwr, Uttar Pradesh
3.17MGMYMughal Sarai Marshalling Yard  02:49-02:49-  2208.6 5081mECRMughalsarai, Uttar Pradesh
4MGSMughal Sarai Junction (8)X  02:52-03:07-15m--2211.46683mECRMughalsarai 232101, Uttar Pradesh
4.1NEWCNew West CabinX  03:08-03:08-  2212.6 6680mECRMughal Sarai, Uttar Pradesh
4.2JEPJeonathpur (3)X  03:14-03:14-  2219.2 6683mNCRVaranasi, Uttar Pradesh
4.3ARWAhraura Road (4)X  03:20-03:20-  2225.1 6685mNCRDist. Mirzapur - 231305, Uttar Pradesh
4.4KYTKailahat (4)X  03:27-03:27-  2233.6 6683mNCRKailahat, Uttar Pradesh
4.5CARChunar Junction (5)  03:36-03:36-  2243.3 6685mNCRChunar Junction, Uttar Pradesh
4.6DAPDagmagpurX  03:43-03:43-  2250.7 6688mNCRDagmagpur, Uttar Pradesh
4.7PREPaharaX  03:50-03:50-  2258.7 6687mNCRNational Highway 7, Uttar Pradesh
4.8JHGJhingura  03:57-03:57-  2266.2 6685mNCRNational Highway 7, Uttar Pradesh
4.9MZPMirzapur (3)  04:05-04:05-  2274.5 6688mNCRMirzapur, Uttar Pradesh
4.10BDLVindhyachal (3)  04:11-04:11-  2281.9 6688mNCRMirzapur, Uttar Pradesh
4.11BEOBirohe  04:16-04:16-  2286.6 6683mNCRNational Highway 76, Uttar Pradesh
4.12GAEGaipura (4)X  04:23-04:23-  2294.2 6686mNCRGaipura, Uttar Pradesh
4.13JIAJigna (1)  04:29-04:29-  2301.0 6694mNCRNational Highway 76, Uttar Pradesh
4.14MNFManda Road  04:37-04:37-  2309.4 6693mNCRNH 76, Uttar Pradesh
4.15UNDUnchdihX  04:44-04:44-  2317.5 6694mNCRUnchdih, Uttar Pradesh
4.16MJAMeja Road (4)  04:51-04:51-  2325.6 6694mNCRDistrict Allahabad, Uttar Pradesh
4.17BEPBheerpur  05:02-05:02-  2336.9 6694mNCRNH 76, Uttar Pradesh
4.18KCNKarchanaX  05:10-05:10-  2346.0 6694mNCRKarchana, Uttar Pradesh
4.19COIChheoki Junction (3)X  05:18-05:18-  2355.0 6696mNCRDist.-Allahabad, Uttar Pradesh
4.20NYNNaini Junction (4)  05:20-05:20-  2356.6 6698mNCRAllahabad, Uttar Pradesh
4.21LKJNLink Junction Cabin  05:24-05:24-  2361.1 6694mNCRAllahabad, Uttar Pradesh
4.22IDGJIradatganj (3)  05:28-05:28-  2366.0 6699mNCRAllahabad, Uttar Pradesh
4.23JSRJasra (2)  05:34-05:34-  2372.0 6697mNCRJasra, Uttar Pradesh
4.24MFXMadarahaX  05:39-05:39-  2377.8 66103mNCRNational Highway 76, Uttar Pradesh
4.25LOGLohgara (2)X  05:45-05:45-  2384.1 66112mNCRLohgara, Uttar Pradesh
4.26SRJShankargarh (3)  05:54-05:54-  2394.0 66132mNCRShankargarh, Uttar Pradesh
4.27MJHRMajhiari  06:03-06:03-  2403.6 66145mNCRNational Highway 76, Uttar Pradesh
4.28BRGBargarh  06:09-06:09-  2410.8 66166mNCRBargarh, Uttar Pradesh
4.29KTDDKataiya DandiX  06:14-06:14-  2416.3 66168mNCRKataiya, Uttar Pradesh
4.30DBRDabhaura (2)  06:23-06:23-  2426.5 66201mNCRDabhaura, Uttar Pradesh
4.31PNHIPanhaiX  06:33-06:33-  2436.9 66214mNCRManikpur, Uttar Pradesh
4.32MKPManikpur Junction (4)  06:44-06:44-  2449.0 66250mNCRManikpur, Uttar Pradesh
4.33BNSPBansapahar (1)  06:47-06:47-  2452.5 66253mWCRBansapahar, Uttar Pradesh
4.34BQFBarah MuafiX  06:51-06:51-  2456.9 66264mWCRBarahmuafi, Uttar Pradesh
4.35MKDMarkundi  06:59-06:59-  2464.9 66270mWCRState Highway 11, Madhya Pradesh
4.36TKYRTikaria (2)X  07:06-07:06-  2472.8 66268mWCRMDR 11, Madhya Pradesh
4.37EDAItwan DundailaX  07:13-07:13-  2480.4 66320mWCRMajhgawa, Madhya Pradesh
4.38MJGMajhagawan  07:18-07:18-  2485.9 66343mWCRMajhgawa, Madhya Pradesh
4.39CTHRChitahra  07:23-07:23-  2491.7 66367mWCRMDR 11, Madhya Pradesh
4.40KTHAKhutahaX  07:30-07:30-  2499.2 66332mWCRMDR 11, Madhya Pradesh
4.41JTWJaitwar (2)X  07:37-07:37-  2506.6 66321mWCRJaitwar, Madhya Pradesh
4.42HATIHati  07:41-07:41-  2511.5 66310mWCRBhad, Madhya Pradesh
4.43SAGMSagma (1)  07:49-07:49-  2520.5 66337mWCRSatna, Madhya Pradesh
5STASatna Junction (3)X  07:55-08:05-10m12526.784322mWCRSatna, Madhya Pradesh
5.1LGCELagargawan (2)  08:13-08:13-  2538.3 84319mWCRLagargawan, Madhya Pradesh
5.2UHRUnchhera (2)  08:20-08:20-  2547.9 84331mWCRUnchhera, Madhya Pradesh
5.3MYRMaihar (3)  08:30-08:30-  2562.1 84353mWCRMaihar Railway Station, Madhya Pradesh
5.4BUUBhadanpur (2)  08:40-08:40-  2575.5 84362mWCRNational Highway 7, Madhya Pradesh
5.5UDRAmdara (2)  08:49-08:49-  2588.2 84376mWCRNational Highway 34, Madhya Pradesh
5.6PKRDPakara Road (2)  08:56-08:56-  2597.9 84381mWCRPakara, Madhya Pradesh
5.7JKEJukehi (3)  09:03-09:03-  2607.7 84402mWCRJukehi, Madhya Pradesh
5.8PTWAPatwara (2)  09:09-09:09-  2616.0 84398mWCRNational Highway 34 Distric Katni Madhya Pradesh, Madhya Pradesh
6KTEKatni Junction (6)X  09:15-09:20-5m--2625.160387mWCRKatni, Madhya Pradesh
6.1KTESKatni South  09:21-09:21-  2626.1 60386mWCRKatni, Madhya Pradesh
6.2MDRRMadhavnagar Road (2)  09:25-09:25-  2630.2 60398mWCRMadhavnagar, Madhya Pradesh
6.3NWRNiwar (2)  09:33-09:33-  2638.2 60412mWCRPipraundh, Madhya Pradesh
6.4SNRRSansarpur (2)  09:41-09:41-  2646.0 60436mWCRNational Highway 7, Madhya Pradesh
6.5SBDSleemanabad Road (2)  09:48-09:48-  2652.9 60434mWCRSleemanabad, Madhya Pradesh
6.6DDCEDundi (2)X  09:57-09:57-  2662.4 60415mWCRDundi, Madhya Pradesh
6.7SHRSihora Road (2)  10:12-10:12-  2677.3 60388mWCRJabalpur, Madhya Pradesh
6.8GSPRGosalpur (2)X  10:23-10:23-  2688.4 60396mWCRJabalpur, Madhya Pradesh
6.9DOEDeori (2)X  10:33-10:33-  2698.9 60392mWCRJabalpur, Madhya Pradesh
6.10ADTLAdhartal (2)  10:42-10:42-  2707.7 60393mWCRJabalpur, Madhya Pradesh
7JBPJabalpur Junction (4)  10:50-11:00-10m12715.767416mWCRJabalpur, Madhya Pradesh
7.1HBGHowbagh Jabalpur (2)  11:02-11:02-  2718.0 67405mSECRJabalpur, Madhya Pradesh
7.2MMLMadan Mahal (3)  11:03-11:03-  2719.2 67428mWCRJabalpur, Madhya Pradesh
7.3KEQKachhpura (2)  11:05-11:05-  2721.0 67392mWCRJabalpur, Madhya Pradesh
7.4BRGTBheraghat (2)  11:15-11:15-  2732.4 67389mWCRBheraghat, Madhya Pradesh
7.5BHTNBhitoni (2)  11:27-11:27-  2745.5 67377mWCRJabalpur, Madhya Pradesh
7.6BMRBikrampur (2)  11:37-11:37-  2757.1 67353mWCRBikrampur Dist Narsingpur., Madhya Pradesh
7.7SRIDShridham (3)X  11:48-11:48-  2768.9 67373mWCRShridham, Madhya Pradesh
7.8KKBKarak Bel (2)  12:02-12:02-  2784.3 67375mWCRKarak Bel, Madhya Pradesh
7.9BELDBelkhera (2)  12:05-12:05-  2788.6 67367mWCRState Highway 22, Madhya Pradesh
7.10GPCGhatpindrai (2)  12:10-12:10-  2794.2 67366mWCRGhatpindra, Madhya Pradesh
7.11NUNarsinghpur (2)X  12:16-12:16-  2800.0 67365mWCRNarsimhapur, Madhya Pradesh
7.12KYKareli (2)  12:30-12:30-  2816.3 67361mWCRKareli, Madhya Pradesh
7.13KFYKarapgaon (2)X  12:38-12:38-  2824.6 67363mWCRNational Highway 26, Madhya Pradesh
7.14BNEBohani (2)  12:44-12:44-  2831.4 67361mWCRNarsinghpur, Madhya Pradesh
7.15GARGadarwara (2)  12:55-12:55-  2844.3 67352mWCRNarsinghpur, Madhya Pradesh
7.16SCKRSalichauka Road (2)  13:08-13:08-  2858.2 67355mWCRGadarwara, Madhya Pradesh
7.17JHTJunehta (2)X  13:17-13:17-  2868.3 67353mWCRState Highway 22, Madhya Pradesh
7.18BKHBankhedi (2)  13:23-13:23-  2874.8 67351mWCRBankheri, Madhya Pradesh
7.19PPIPipariya (3)X  13:40-13:40-  2893.7 67338mWCRPiparia, Madhya Pradesh
7.20SXFSobhapur (2)X  13:47-13:47-  2902.3 67338mWCRState Highway 22, Madhya Pradesh
7.21SGPSohagpur (2)  13:56-13:56-  2911.4 67340mWCRSohagpur, Madhya Pradesh
7.22GMDGuramkhedi (2)X  14:05-14:05-  2921.4 67337mWCRGuramkhedi, Madhya Pradesh
7.23BGTABagratawa (2)  14:16-14:16-  2934.5 67338mWCRBagra Tawa, Madhya Pradesh
7.24SQLSontalai (2)  14:22-14:22-  2941.3 67329mWCRItarsi, Madhya Pradesh
7.25GROGurra (2)  14:31-14:31-  2950.3 67327mWCRItarsi, Madhya Pradesh
8ETItarsi Junction (7)X  14:40-14:50-10m22960.963329mWCRItarsi 461111, Madhya Pradesh
8.1JUHJujharpur CabinX  14:51-14:51-  2962.1 63323mWCRItarsi, Madhya Pradesh
8.2JHPJujharpur  14:53-14:53-  2964.4 63328mCRItarsi, Madhya Pradesh
8.3KRTHKiratgarh (2)  15:00-15:00-  2971.6 63369mCRItarsi, Madhya Pradesh
8.4KSLAKesla (2)  15:06-15:06-  2977.3 63410mCRNH69, Madhya Pradesh
8.5TAKUTaku (2)X  15:12-15:12-  2983.3 63390mCRItarsi, Madhya Pradesh
8.6SAHLSaheli (2)X  15:15-15:15-  2987.4 63388mCRItarsi, Madhya Pradesh
8.7KQEKala Akhar (2)  15:22-15:22-  2993.9 63376mCRItarsi, Madhya Pradesh
8.8POXPola Patthar (2)  15:28-15:28-  21000.3 63392mCRBetul, Madhya Pradesh
8.9DOHDhodramohar (2)  15:36-15:36-  21008.6 63376mCRBetul, Madhya Pradesh
8.10MGRDMagardoh (2)  15:41-15:41-  21014.3 63393mCRBetul, Madhya Pradesh
8.11BBTRBarbatpur (3)  15:46-15:46-  21019.7 63394mCRBetul, Madhya Pradesh
8.12GDYAGhoradongri (3)X  15:57-15:57-  21031.3 63410mCRBetul, Madhya Pradesh
8.13DHQDharakhoh (2)X  16:12-16:12-  21046.3 63482mCRBetul, Madhya Pradesh
8.14MJYMaramjhiri (2)  16:24-16:24-  21059.1 63642mCRBetul, Madhya Pradesh
8.15BZUBetul (3)  16:32-16:32-  21067.2 63644mCRBetul, Madhya Pradesh
8.16MALKMalkapur Road (1)X  16:38-16:38-  21073.6 63668mCRBetul, Madhya Pradesh
8.17BYSBarsali (2)X  16:44-16:44-  21080.3 63699mCRAmla, Madhya Pradesh
8.18AMLAAmla Junction (5)  16:54-16:54-  21090.1 63733mCRAmla Distt. Betul, Madhya Pradesh
8.19JKRJaulkhera (2)  17:05-17:05-  21101.7 63759mCRNH 69, Madhya Pradesh
8.20MTYMultai (2)  17:16-17:16-  21112.9 63762mCRMultai, Madhya Pradesh
8.21HTNHatna Pur (2)  17:25-17:25-  21122.4 63730mCRNH 69, Madhya Pradesh
8.22CCDChichonda (3)X  17:30-17:30-  21128.2 63703mCRNH 69 District Chhindwara, Madhya Pradesh
8.23GDKPGhundankhapa (2)X  17:39-17:39-  21137.4 63611mCRMohi, Madhya Pradesh
8.24TEOTeegaon (2)  17:46-17:46-  21144.9 63528mCRBetul, Madhya Pradesh
8.25PARPandhurna (2)  17:55-17:55-  21153.7 63481mCRDistt: Chhindwara, Madhya Pradesh
8.26DDMTDarimeta (2)X  18:03-18:03-  21162.2 63473mCRNarkher, Maharashtra
8.27NRKRNarkher Junction (3)  18:13-18:13-  21172.0 63411mCRNarkher, Maharashtra
8.28TNHTinkheda (2)X  18:19-18:19-  21179.0 63415mCRSH 246, Maharashtra
8.29KLBAKalambha (2)  18:27-18:27-  21187.1 63406mCRSH 248, Maharashtra
8.30KATLKatol (2)  18:37-18:37-  21197.2 63415mCRKatol, Maharashtra
8.31MERMetpanjra (3)O  18:45-18:45-  21206.3 63438mCRSH 248, Maharashtra
8.32SNKBSonkhamb (2)X  18:52-18:52-  21213.4 63403mCRSH 248, Maharashtra
8.33KOHLKohli (2)  19:00-19:00-  21221.6 63368mCRSH 250, Maharashtra
8.34KSWRKalmeshwar (2)X  19:12-19:12-  21233.9 63336mCRKalameshwar, Maharashtra
8.35BWRABharatwada (2)  19:22-19:22-  21244.6 63322mCRNagpur, Maharashtra
8.36GNQGodhani (2)X  19:28-19:28-  21250.9 63312mCRNagpur, Maharashtra
9NGPNagpur Junction (8)  19:35-19:45-10m221258.055314mCRNagpur 440001, Maharashtra
9.1MIBNagpur Moti Bagh (1)X  19:46-19:46-  21258.8 55309mCRNagpur, Maharashtra
9.2AJNIAjni (3)  19:48-19:48-  21261.1 55310mCRNagpur 440003, Maharashtra
9.3KRIKhapri (2)X  19:58-19:58-  21270.4 55312mCRNagpur, Maharashtra
9.4GMGGumgaon (2)  20:05-20:05-  21276.9 55302mCRNagpur, Maharashtra
9.5BTBRButi Bori (4)  20:15-20:15-  21285.6 55269mCRButi Bori, Maharashtra
9.6BOKBorkhediX  20:23-20:23-  21293.4 55268mCRWardha, Maharashtra
9.7SNISindi (2)  20:36-20:36-  21304.9 55258mCRWardha, Maharashtra
9.8TGPTuljapur (2)  20:44-20:44-  21312.9 55259mCRTuljapur, Maharashtra
9.9SLORSeloo Road  20:55-20:55-  21322.9 55256mCRMSH3, Maharashtra
9.10VADRWarud  21:04-21:04-  21330.8 55261mCRSewagram, Maharashtra
9.11SEGMSewagram Junction (5)  21:07-21:07-  21334.2 55279mCRWardha, Maharashtra
9.12CHJCChitoda  21:11-21:11-  21337.5 55265mCRChitoda, Maharashtra
9.13BPKBhugaon (3)  21:19-21:19-  21344.6 55267mCRWardha, Maharashtra
9.14SNNSonegaon (2)  21:26-21:26-  21351.1 55262mCRWardha, Maharashtra
9.15WGWagholi (2)  21:35-21:35-  21359.5 55238mCRWagholi, Maharashtra
9.16HGTHinganghat (3)  21:43-21:43-  21367.4 55228mCRHinganghat, Maharashtra
9.17YNAYenor  21:49-21:49-  21372.7 55221mCRMumbai, Maharashtra
9.18NGINagri  22:01-22:01-  21384.1 55230mCRHinganghat, Maharashtra
9.19CKNIChikni Road (2)X  22:14-22:14-  21395.9 55211mCRChandrapur, Maharashtra
9.20WRRWarora (2)  22:26-22:26-  21406.4 55214mCRWarora, Maharashtra
10MJRIMajri Junction (3)X  22:39-22:40-1m--21418.829198mCRDist. Chandrapur, Maharashtra
10.1MJKNMajri Khadan  22:51-22:51-  21424.3 29195mCRPatala, Maharashtra
10.2WANIWani (1)  23:06-23:06-  21431.8 29212mCRWani, Maharashtra
10.3KAYRKayar  23:51-23:51-  21453.5 29231mCRState Highway 233, Maharashtra
10.4LNTLingti  00:50-00:50-  31482.4 29227mCRState Highway 234, Maharashtra
10.5PMKTPimpal Khuti (1)  01:22-01:22-  31498.2 29230mCRPimpalkhuti, Maharashtra
11ADBAdilabad (3)  02:05-02:10-5m131519.462248mSCRAdilabad, Telangana
11.1UMMUmram  02:21-02:21-  31530.3 62286mSCRAdilabad Dist, Telangana
11.2TLMGTalmadugu  02:26-02:26-  31535.5 62299mSCRAdilabad Dist, Telangana
11.3KSAEKosai  02:32-02:32-  31542.1 62329mSCRAdilabad Dist., Telangana
11.4ABXAmbari  02:46-02:46-  31556.7 62329mSCRKinwat, Maharashtra
12KNVTKinwat (2)  02:54-02:55-1m--31564.661319mSCRKinwat, Maharashtra
12.1BHBKBodhadi Bujrug  03:09-03:09-  31579.3 61357mSCRKinwat, Maharashtra
12.2DHNRDhanora Deccan  03:24-03:24-  31593.9 61416mSCRKinwat, Maharashtra
12.3MHMBMahimba  03:31-03:31-  31601.3 61404mSCRNanded, Maharashtra
13SHSKSahasrakundX  03:39-03:40-1m--31609.438402mSCRNanded, Maharashtra
13.1JXNJirona  03:50-03:50-  31615.7 38390mSCRNanded, Maharashtra
13.2HEMHimayatnagar  04:05-04:05-  31625.0 38398mSCRNanded, Maharashtra
13.3KDBRKhadki Bazar  04:10-04:10-  31628.5 38402mSCRMSH 3, Maharashtra
13.4JLGJalgaon Deccan  04:18-04:18-  31633.7 38413mSCRMSH 3, Maharashtra
13.5PRWAParwakhurd  04:24-04:24-  31637.2 38410mSCRMSH 3, Maharashtra
13.6HDGRHadgaon Road  04:33-04:33-  31643.1 38421mSCRNanded, Maharashtra
13.7DVNDevthana  04:51-04:51-  31654.8 38440mSCRNanded, Maharashtra
13.8TBUTharban  04:55-04:55-  31656.9 38431mSCRMSH 3, Maharashtra
13.9BOKRBhokar  05:01-05:01-  31661.1 38460mSCRBhokar, Maharashtra
13.10BMBEBimbari  05:13-05:13-  31668.2 38463mSCRBhokar, Maharashtra
13.11JMBLJambhali  05:20-05:20-  31672.6 38434mSCRBhokar, Maharashtra
13.12MUEMudkhed Junction (4)X  05:35-05:35-  31682.3 38378mSCRMudkhed, Maharashtra
13.13MGCMugat  05:49-05:49-  31691.5 38360mSCRHuzur Sahib Nanded, Maharashtra
13.14PARDPathrad  05:54-05:54-  31694.8 38363mSCRHuzur Sahib Nanded, Maharashtra
13.15MTDIMaltekdi  06:06-06:06-  31701.9 38362mSCRNanded, Maharashtra
14NEDHazur Sahib Nanded (4)X  06:10-06:15-5m--31704.733366mSCRNanded, Maharashtra
14.1WNGWanegaon  06:27-06:27-  31711.1 33371mSCRChudawa, Maharashtra
14.2LBGLimbgaon (2)  06:35-06:35-  31715.8 33390mSCRHuzur Sahib Nanded, Maharashtra
14.3CRUChudawa (1)  06:52-06:52-  31725.4 33392mSCRHingoli, Maharashtra
15PAUPurna Junction (4)  07:10----31735.3-384mSCRPurna, Maharashtra
Scroll to Top
Scroll to Bottom